TITAN 3C TRANSTAGE DEB, 26528

Orbit data source: Space-Track

TITAN 3C TRANSTAGE DEB, 26528 is space debris in HEO originally from a launch on Tue, 21 Dec 1965 UTC launched from the Air Force Eastern Test Range (AFETR). Debris objects in space refer to the collection of defunct objects orbiting the Earth. Examples of debris include non-operational satellites, rocket bodies, and fragments generated from explosions, collisions, or faulty payload assembly.

Loading next visibility...
Identifier
26528, 1965-108AP
Orbit
HEO
Last TLE update
22 hours ago
Origin
Manufacturer
Unknown
Mission
Spacecraft
Bus & Motor
Unknown
Mass
Unknown
Launch date (UTC)
1965-12-21 (60 years ago)
Launch vehicle
Unknown
Launch site
Air Force Eastern Test Range (AFETR)
Object type
Payload
Rocket body
Debris
Shape & HBR
Unknown
Radar Cross Section
Medium (>0.1 m² and <1 m²)

Expand to show TLE details & history

TLE from 22 hours ago
0 TITAN 3C TRANSTAGE DEB
1 26528U 65108AP  25187.92992605  .00000319  00000-0  27418-1 0  9994
2 26528  27.4387  58.5736 6671119  80.3497   4.6638  2.68085567259181
Epoch: 2025-07-06T22:19Z
TLE epoch observation values (Epoch: 2025-07-06T22:19:05.61Z)
Latitude
25.53887°
Longitude
-87.50952°
Altitude
1,344.149 km
Speed
9.223 km/s
True Right ascension
11h 29m 38s
True Declination
25° 24' 56"
Sunlit
Object was in daylight at epoch
Visualization orbit readout
Latitude
-27.26092°
Longitude
60.68727°
Altitude
30,065.637 km
Speed
1.915 km/s
Apparent Right ascension
21h 18m 24s
Apparent Declination
-29° 06' 30"
Sunlit
Object is in daylight
Visualization observer readout
Local Sidereal Time
08:51:45
Azimuth
331.109° NNW
Elevation
-77.887°
Doppler factor
1
Orbital elements
Apogee altitude
30,118.293 km
Perigee altitude
909.452 km
Semi-major axis
21,892.01 km
Eccentricity
0.66711
Inclination
27.4387°
RAAN
58.5736°
Arg. of periapsis
80.3497°
True anomaly
Unknown
Mean anomaly
4.6638°
Eccentric anomaly
Unknown
Mean motion
0.67006 °/min
Orbital period
537.26 mins
BSTAR
0.027418
Loading maneuver chart data...
Loading SW <> Apogee altitude chart data...

TITAN 3C TRANSTAGE DEB Visibility forecast

Observer location: undefined°, undefined°

Span
Click to sort rows by Start time (UTC) header in descending order
Start Az.
Max El. time (UTC)
Max El. Az.
Max El.
End time (UTC)
End Az.
33 mins2025-07-08 01:10:56.805Z241.118° WSW2025-07-08 01:17:56.805Z182.216° SSW26.208°2025-07-08 01:43:56.805Z132.923° SE
9 mins2025-07-08 18:44:56.805Z215.761° SW2025-07-08 18:50:56.805Z173.578° S18.82°2025-07-08 18:53:56.805Z136.277° SSE
|